Time,TemperatureF,DewpointF,PressureIn,WindDirection,WindDirectionDegrees,WindSpeedMPH,WindSpeedGustMPH,Humidity,HourlyPrecipIn,Conditions,Clouds,dailyrainin,SolarRadiationWatts/m^2,SoftwareType,DateUTC
2013-08-08 00:01:00,66.1,57.9,30.14,South,190,11.0,14.0,75,0.00,,,0.00,0,HR-IXPWINDi_r2_v1.2.,2013-08-08 04:01:00,
2013-08-08 00:06:00,66.1,57.5,30.14,SSW,197,11.0,15.0,74,0.00,,,0.00,0,HR-IXPWINDi_r2_v1.2.,2013-08-08 04:06:00,
2013-08-08 00:11:00,66.0,57.8,30.14,South,186,12.0,15.0,75,0.00,,,0.00,0,HR-IXPWINDi_r2_v1.2.,2013-08-08 04:11:00,
2013-08-08 00:16:00,65.9,57.7,30.13,South,180,10.0,14.0,75,0.00,,,0.00,0,HR-IXPWINDi_r2_v1.2.,2013-08-08 04:16:00,
2013-08-08 00:21:00,65.8,57.6,30.13,South,186,10.0,15.0,75,0.00,,,0.00,0,HR-IXPWINDi_r2_v1.2.,2013-08-08 04:21:00,
2013-08-08 00:27:00,65.8,58.0,30.13,SSW,207,8.0,15.0,76,0.00,,,0.00,0,HR-IXPWINDi_r2_v1.2.,2013-08-08 04:27:00,
2013-08-08 00:32:00,65.8,58.3,30.13,South,186,12.0,14.0,77,0.00,,,0.00,0,HR-IXPWINDi_r2_v1.2.,2013-08-08 04:32:00,
2013-08-08 00:37:00,65.8,58.3,30.13,South,187,10.0,15.0,77,0.00,,,0.00,0,HR-IXPWINDi_r2_v1.2.,2013-08-08 04:37:00,
2013-08-08 00:42:00,65.8,58.3,30.12,South,178,6.0,15.0,77,0.00,,,0.00,0,HR-IXPWINDi_r2_v1.2.,2013-08-08 04:42:00,
2013-08-08 00:47:00,65.8,58.7,30.13,SSW,200,9.0,14.0,78,0.00,,,0.00,0,HR-IXPWINDi_r2_v1.2.,2013-08-08 04:47:00,
2013-08-08 00:53:00,65.6,58.1,30.12,SSE,163,6.0,12.0,77,0.00,,,0.00,0,HR-IXPWINDi_r2_v1.2.,2013-08-08 04:53:00,
2013-08-08 00:58:00,65.6,58.5,30.12,South,190,6.0,11.0,78,0.00,,,0.00,0,HR-IXPWINDi_r2_v1.2.,2013-08-08 04:58:00,
2013-08-08 01:03:00,65.6,58.5,30.12,SSE,163,9.0,10.0,78,0.00,,,0.00,0,HR-IXPWINDi_r2_v1.2.,2013-08-08 05:03:00,
2013-08-08 01:08:00,65.6,58.8,30.12,South,187,11.0,13.0,79,0.00,,,0.00,0,HR-IXPWINDi_r2_v1.2.,2013-08-08 05:08:00,
2013-08-08 01:13:00,65.6,58.8,30.12,SSW,204,9.0,13.0,79,0.00,,,0.00,0,HR-IXPWINDi_r2_v1.2.,2013-08-08 05:13:00,
2013-08-08 01:19:00,65.7,58.9,30.11,SSW,199,5.0,12.0,79,0.00,,,0.00,0,HR-IXPWINDi_r2_v1.2.,2013-08-08 05:19:00,
2013-08-08 01:24:00,65.6,58.8,30.11,SSE,159,7.0,12.0,79,0.00,,,0.00,0,HR-IXPWINDi_r2_v1.2.,2013-08-08 05:24:00,
2013-08-08 01:29:00,65.6,58.8,30.11,South,188,9.0,12.0,79,0.00,,,0.00,0,HR-IXPWINDi_r2_v1.2.,2013-08-08 05:29:00,
2013-08-08 01:34:00,65.6,58.8,30.11,South,180,5.0,12.0,79,0.00,,,0.00,0,HR-IXPWINDi_r2_v1.2.,2013-08-08 05:34:00,
2013-08-08 01:39:00,65.5,58.8,30.11,South,185,10.0,13.0,79,0.00,,,0.00,0,HR-IXPWINDi_r2_v1.2.,2013-08-08 05:39:00,
2013-08-08 01:44:00,65.5,59.1,30.11,South,187,11.0,13.0,80,0.00,,,0.00,0,HR-IXPWINDi_r2_v1.2.,2013-08-08 05:44:00,
2013-08-08 01:50:00,65.5,58.4,30.11,South,190,10.0,13.0,78,0.00,,,0.00,0,HR-IXPWINDi_r2_v1.2.,2013-08-08 05:50:00,
2013-08-08 01:55:00,65.6,58.5,30.11,South,185,14.0,14.0,78,0.00,,,0.00,0,HR-IXPWINDi_r2_v1.2.,2013-08-08 05:55:00,
2013-08-08 02:00:00,65.6,58.1,30.11,South,185,14.0,15.0,77,0.00,,,0.00,0,HR-IXPWINDi_r2_v1.2.,2013-08-08 06:00:00,
2013-08-08 02:05:00,65.7,58.2,30.11,SSW,200,13.0,17.0,77,0.00,,,0.00,0,HR-IXPWINDi_r2_v1.2.,2013-08-08 06:05:00,
2013-08-08 02:11:00,65.7,58.2,30.11,SSW,198,9.0,17.0,77,0.00,,,0.00,0,HR-IXPWINDi_r2_v1.2.,2013-08-08 06:11:00,
2013-08-08 02:16:00,65.6,58.1,30.11,SSW,192,11.0,17.0,77,0.00,,,0.00,0,HR-IXPWINDi_r2_v1.2.,2013-08-08 06:16:00,
2013-08-08 02:21:00,65.6,58.1,30.11,South,175,11.0,15.0,77,0.00,,,0.00,0,HR-IXPWINDi_r2_v1.2.,2013-08-08 06:21:00,
2013-08-08 02:26:00,65.5,58.4,30.11,SSW,194,7.0,15.0,78,0.00,,,0.00,0,HR-IXPWINDi_r2_v1.2.,2013-08-08 06:26:00,
2013-08-08 02:31:00,65.4,58.3,30.11,South,186,9.0,12.0,78,0.00,,,0.00,0,HR-IXPWINDi_r2_v1.2.,2013-08-08 06:31:00,
2013-08-08 02:37:00,65.5,58.8,30.10,South,183,9.0,11.0,79,0.00,,,0.00,0,HR-IXPWINDi_r2_v1.2.,2013-08-08 06:37:00,
2013-08-08 02:42:00,65.5,58.8,30.10,SE,140,5.0,11.0,79,0.00,,,0.00,0,HR-IXPWINDi_r2_v1.2.,2013-08-08 06:42:00,
2013-08-08 02:47:00,65.4,59.0,30.10,SSE,155,4.0,11.0,80,0.00,,,0.00,0,HR-IXPWINDi_r2_v1.2.,2013-08-08 06:47:00,
2013-08-08 02:52:00,65.3,58.9,30.10,SE,146,6.0,8.0,80,0.00,,,0.00,0,HR-IXPWINDi_r2_v1.2.,2013-08-08 06:52:00,
2013-08-08 02:58:00,65.4,59.4,30.10,SE,146,4.0,8.0,81,0.00,,,0.00,0,HR-IXPWINDi_r2_v1.2.,2013-08-08 06:58:00,
2013-08-08 03:03:00,65.4,59.4,30.10,SSW,196,6.0,10.0,81,0.00,,,0.00,0,HR-IXPWINDi_r2_v1.2.,2013-08-08 07:03:00,
2013-08-08 03:08:00,65.4,59.4,30.10,South,177,4.0,10.0,81,0.00,,,0.00,0,HR-IXPWINDi_r2_v1.2.,2013-08-08 07:08:00,
2013-08-08 03:13:00,65.3,59.3,30.10,South,170,5.0,9.0,81,0.00,,,0.00,0,HR-IXPWINDi_r2_v1.2.,2013-08-08 07:13:00,
2013-08-08 03:18:00,65.3,59.3,30.10,South,169,5.0,7.0,81,0.00,,,0.00,0,HR-IXPWINDi_r2_v1.2.,2013-08-08 07:18:00,
2013-08-08 03:24:00,65.2,59.5,30.10,SSE,157,3.0,8.0,82,0.00,,,0.00,0,HR-IXPWINDi_r2_v1.2.,2013-08-08 07:24:00,
2013-08-08 03:29:00,65.2,59.5,30.10,SSE,161,3.0,8.0,82,0.00,,,0.00,0,HR-IXPWINDi_r2_v1.2.,2013-08-08 07:29:00,
2013-08-08 03:34:00,65.2,59.8,30.10,South,174,4.0,6.0,83,0.00,,,0.00,0,HR-IXPWINDi_r2_v1.2.,2013-08-08 07:34:00,
2013-08-08 03:39:00,65.2,59.8,30.09,SSE,168,2.0,7.0,83,0.00,,,0.00,0,HR-IXPWINDi_r2_v1.2.,2013-08-08 07:39:00,
2013-08-08 03:44:00,65.2,59.8,30.09,South,176,7.0,7.0,83,0.00,,,0.00,0,HR-IXPWINDi_r2_v1.2.,2013-08-08 07:44:00,
2013-08-08 03:50:00,65.3,60.3,30.09,SSW,196,4.0,7.0,84,0.00,,,0.00,0,HR-IXPWINDi_r2_v1.2.,2013-08-08 07:50:00,
2013-08-08 03:55:00,65.3,60.3,30.09,South,182,4.0,8.0,84,0.00,,,0.00,0,HR-IXPWINDi_r2_v1.2.,2013-08-08 07:55:00,
2013-08-08 04:00:00,65.4,60.7,30.09,South,188,6.0,8.0,85,0.00,,,0.00,0,HR-IXPWINDi_r2_v1.2.,2013-08-08 08:00:00,
2013-08-08 04:05:00,65.4,60.7,30.09,SSW,196,7.0,7.0,85,0.00,,,0.00,0,HR-IXPWINDi_r2_v1.2.,2013-08-08 08:05:00,
2013-08-08 04:10:00,65.4,60.4,30.09,South,184,5.0,7.0,84,0.00,,,0.00,0,HR-IXPWINDi_r2_v1.2.,2013-08-08 08:10:00,
2013-08-08 04:15:00,65.4,60.4,30.09,South,188,3.0,7.0,84,0.00,,,0.00,0,HR-IXPWINDi_r2_v1.2.,2013-08-08 08:15:00,
2013-08-08 04:20:00,65.5,60.8,30.09,SSW,194,4.0,8.0,85,0.00,,,0.00,0,HR-IXPWINDi_r2_v1.2.,2013-08-08 08:20:00,
2013-08-08 04:25:00,65.4,60.7,30.09,SSE,162,3.0,8.0,85,0.00,,,0.00,0,HR-IXPWINDi_r2_v1.2.,2013-08-08 08:25:00,
2013-08-08 04:31:00,65.4,60.7,30.09,South,184,2.0,6.0,85,0.00,,,0.00,0,HR-IXPWINDi_r2_v1.2.,2013-08-08 08:31:00,
2013-08-08 04:36:00,65.3,60.6,30.09,SSE,158,3.0,6.0,85,0.00,,,0.00,0,HR-IXPWINDi_r2_v1.2.,2013-08-08 08:36:00,
2013-08-08 04:41:00,65.2,60.5,30.09,South,190,2.0,6.0,85,0.00,,,0.00,0,HR-IXPWINDi_r2_v1.2.,2013-08-08 08:41:00,
2013-08-08 04:46:00,65.2,60.8,30.09,South,183,3.0,5.0,86,0.00,,,0.00,0,HR-IXPWINDi_r2_v1.2.,2013-08-08 08:46:00,
2013-08-08 04:52:00,65.1,60.4,30.08,SSW,196,2.0,5.0,85,0.00,,,0.00,0,HR-IXPWINDi_r2_v1.2.,2013-08-08 08:52:00,
2013-08-08 04:57:00,65.1,60.7,30.08,SSE,158,2.0,4.0,86,0.00,,,0.00,0,HR-IXPWINDi_r2_v1.2.,2013-08-08 08:57:00,
2013-08-08 05:02:00,65.1,60.7,30.08,South,169,3.0,5.0,86,0.00,,,0.00,0,HR-IXPWINDi_r2_v1.2.,2013-08-08 09:02:00,
2013-08-08 05:07:00,65.1,60.7,30.08,South,181,2.0,6.0,86,0.00,,,0.00,0,HR-IXPWINDi_r2_v1.2.,2013-08-08 09:07:00,
2013-08-08 05:12:00,65.2,60.8,30.08,South,185,1.0,6.0,86,0.00,,,0.00,0,HR-IXPWINDi_r2_v1.2.,2013-08-08 09:12:00,
2013-08-08 05:17:00,65.3,61.3,30.08,South,182,6.0,7.0,87,0.00,,,0.00,0,HR-IXPWINDi_r2_v1.2.,2013-08-08 09:17:00,
2013-08-08 05:23:00,65.4,61.4,30.08,South,180,6.0,7.0,87,0.00,,,0.00,0,HR-IXPWINDi_r2_v1.2.,2013-08-08 09:23:00,
2013-08-08 05:28:00,65.5,61.5,30.08,South,182,3.0,7.0,87,0.00,,,0.00,0,HR-IXPWINDi_r2_v1.2.,2013-08-08 09:28:00,
2013-08-08 05:33:00,65.4,61.4,30.08,SSW,192,2.0,7.0,87,0.00,,,0.00,0,HR-IXPWINDi_r2_v1.2.,2013-08-08 09:33:00,
2013-08-08 05:38:00,65.4,61.7,30.07,South,188,2.0,5.0,88,0.00,,,0.00,0,HR-IXPWINDi_r2_v1.2.,2013-08-08 09:38:00,
2013-08-08 05:43:00,65.4,61.7,30.07,SSE,157,0.0,5.0,88,0.00,,,0.00,0,HR-IXPWINDi_r2_v1.2.,2013-08-08 09:43:00,
2013-08-08 05:48:00,65.3,61.6,30.07,SSE,164,1.0,5.0,88,0.00,,,0.00,0,HR-IXPWINDi_r2_v1.2.,2013-08-08 09:48:00,
2013-08-08 05:54:00,65.3,61.6,30.07,SSE,160,2.0,5.0,88,0.00,,,0.00,0,HR-IXPWINDi_r2_v1.2.,2013-08-08 09:54:00,
2013-08-08 05:59:00,65.3,61.6,30.07,SE,143,5.0,5.0,88,0.00,,,0.00,0,HR-IXPWINDi_r2_v1.2.,2013-08-08 09:59:00,
2013-08-08 06:04:00,65.4,62.0,30.07,SSE,167,3.0,6.0,89,0.00,,,0.00,0,HR-IXPWINDi_r2_v1.2.,2013-08-08 10:04:00,
2013-08-08 06:09:00,65.6,62.2,30.08,SSE,155,2.0,6.0,89,0.00,,,0.00,0,HR-IXPWINDi_r2_v1.2.,2013-08-08 10:09:00,
2013-08-08 06:15:00,65.7,62.3,30.08,South,169,2.0,4.0,89,0.00,,,0.00,0,HR-IXPWINDi_r2_v1.2.,2013-08-08 10:15:00,
2013-08-08 06:21:00,65.8,62.4,30.08,SSW,195,3.0,6.0,89,0.00,,,0.00,0,HR-IXPWINDi_r2_v1.2.,2013-08-08 10:21:00,
2013-08-08 06:26:00,65.8,62.4,30.08,South,183,4.0,6.0,89,0.00,,,0.00,5,HR-IXPWINDi_r2_v1.2.,2013-08-08 10:26:00,
2013-08-08 06:31:00,66.0,62.6,30.08,South,184,7.0,10.0,89,0.00,,,0.00,7,HR-IXPWINDi_r2_v1.2.,2013-08-08 10:31:00,
2013-08-08 06:36:00,66.1,62.7,30.08,South,184,8.0,10.0,89,0.00,,,0.00,9,HR-IXPWINDi_r2_v1.2.,2013-08-08 10:36:00,
2013-08-08 06:41:00,66.3,62.6,30.08,South,184,8.0,9.0,88,0.00,,,0.00,7,HR-IXPWINDi_r2_v1.2.,2013-08-08 10:41:00,
2013-08-08 06:46:00,66.4,62.7,30.08,South,182,5.0,9.0,88,0.00,,,0.00,5,HR-IXPWINDi_r2_v1.2.,2013-08-08 10:46:00,
2013-08-08 06:52:00,66.5,63.1,30.08,SSE,167,7.0,10.0,89,0.00,,,0.00,11,HR-IXPWINDi_r2_v1.2.,2013-08-08 10:52:00,
2013-08-08 06:57:00,66.5,63.1,30.08,South,188,12.0,12.0,89,0.00,,,0.00,14,HR-IXPWINDi_r2_v1.2.,2013-08-08 10:57:00,
2013-08-08 07:02:00,66.6,63.2,30.07,South,176,7.0,12.0,89,0.00,,,0.00,39,HR-IXPWINDi_r2_v1.2.,2013-08-08 11:02:00,
2013-08-08 07:07:00,66.7,63.3,30.07,SSW,210,8.0,13.0,89,0.00,,,0.00,35,HR-IXPWINDi_r2_v1.2.,2013-08-08 11:07:00,
2013-08-08 07:12:00,66.7,63.3,30.08,SSE,167,8.0,15.0,89,0.00,,,0.01,30,HR-IXPWINDi_r2_v1.2.,2013-08-08 11:12:00,
2013-08-08 07:17:00,66.7,63.3,30.07,South,190,11.0,16.0,89,0.00,,,0.01,44,HR-IXPWINDi_r2_v1.2.,2013-08-08 11:17:00,
2013-08-08 07:22:00,66.7,63.3,30.07,SSW,205,11.0,18.0,89,0.06,,,0.02,62,HR-IXPWINDi_r2_v1.2.,2013-08-08 11:22:00,
2013-08-08 07:28:00,66.7,63.3,30.07,South,186,17.0,19.0,89,0.06,,,0.02,70,HR-IXPWINDi_r2_v1.2.,2013-08-08 11:28:00,
2013-08-08 07:33:00,66.6,63.2,30.08,South,185,12.0,19.0,89,0.04,,,0.02,62,HR-IXPWINDi_r2_v1.2.,2013-08-08 11:33:00,
2013-08-08 07:38:00,66.6,63.5,30.08,South,186,9.0,18.0,90,0.00,,,0.02,42,HR-IXPWINDi_r2_v1.2.,2013-08-08 11:38:00,
2013-08-08 07:43:00,66.6,63.5,30.08,SW,215,12.0,18.0,90,0.00,,,0.02,32,HR-IXPWINDi_r2_v1.2.,2013-08-08 11:43:00,
2013-08-08 07:49:00,66.6,63.5,30.07,South,184,15.0,18.0,90,0.00,,,0.02,35,HR-IXPWINDi_r2_v1.2.,2013-08-08 11:49:00,
2013-08-08 07:54:00,66.7,63.6,30.07,South,186,13.0,18.0,90,0.00,,,0.02,30,HR-IXPWINDi_r2_v1.2.,2013-08-08 11:54:00,
2013-08-08 07:59:00,66.7,63.6,30.08,South,181,12.0,18.0,90,0.00,,,0.02,47,HR-IXPWINDi_r2_v1.2.,2013-08-08 11:59:00,
2013-08-08 08:04:00,66.8,63.7,30.08,South,182,9.0,16.0,90,0.00,,,0.02,91,HR-IXPWINDi_r2_v1.2.,2013-08-08 12:04:00,
2013-08-08 08:09:00,66.9,63.8,30.08,SSW,194,8.0,14.0,90,0.00,,,0.02,114,HR-IXPWINDi_r2_v1.2.,2013-08-08 12:09:00,
2013-08-08 08:14:00,67.0,63.9,30.08,SSW,197,9.0,12.0,90,0.00,,,0.02,84,HR-IXPWINDi_r2_v1.2.,2013-08-08 12:14:00,
2013-08-08 08:19:00,67.0,63.9,30.08,SSW,199,10.0,12.0,90,0.00,,,0.02,127,HR-IXPWINDi_r2_v1.2.,2013-08-08 12:19:00,
2013-08-08 08:24:00,67.2,64.1,30.08,South,188,12.0,13.0,90,0.00,,,0.02,134,HR-IXPWINDi_r2_v1.2.,2013-08-08 12:24:00,
2013-08-08 08:29:00,67.2,64.1,30.08,South,180,10.0,13.0,90,0.00,,,0.02,81,HR-IXPWINDi_r2_v1.2.,2013-08-08 12:29:00,
2013-08-08 08:34:00,67.2,64.1,30.08,SSW,192,9.0,13.0,90,0.00,,,0.02,120,HR-IXPWINDi_r2_v1.2.,2013-08-08 12:34:00,
2013-08-08 08:40:00,67.4,64.3,30.08,South,187,10.0,13.0,90,0.00,,,0.02,127,HR-IXPWINDi_r2_v1.2.,2013-08-08 12:40:00,
2013-08-08 08:45:00,67.4,64.0,30.08,SSW,194,9.0,13.0,89,0.00,,,0.02,181,HR-IXPWINDi_r2_v1.2.,2013-08-08 12:45:00,
2013-08-08 08:50:00,67.7,64.6,30.07,South,186,9.0,13.0,90,0.00,,,0.02,436,HR-IXPWINDi_r2_v1.2.,2013-08-08 12:50:00,
2013-08-08 08:55:00,68.0,64.6,30.07,SSW,192,10.0,13.0,89,0.00,,,0.02,172,HR-IXPWINDi_r2_v1.2.,2013-08-08 12:55:00,
2013-08-08 09:00:00,68.0,64.6,30.07,SSW,201,9.0,13.0,89,0.00,,,0.02,188,HR-IXPWINDi_r2_v1.2.,2013-08-08 13:00:00,
2013-08-08 09:05:00,68.1,64.7,30.07,SW,233,8.0,12.0,89,0.00,,,0.02,239,HR-IXPWINDi_r2_v1.2.,2013-08-08 13:05:00,
2013-08-08 09:11:00,68.3,64.9,30.07,South,186,8.0,11.0,89,0.00,,,0.02,325,HR-IXPWINDi_r2_v1.2.,2013-08-08 13:11:00,
2013-08-08 09:16:00,68.7,64.9,30.07,SSW,196,7.0,11.0,88,0.00,,,0.02,199,HR-IXPWINDi_r2_v1.2.,2013-08-08 13:16:00,
2013-08-08 09:21:00,68.8,65.0,30.07,South,189,8.0,11.0,88,0.00,,,0.02,109,HR-IXPWINDi_r2_v1.2.,2013-08-08 13:21:00,
2013-08-08 09:26:00,68.6,64.8,30.08,SSW,196,7.0,10.0,88,0.00,,,0.02,86,HR-IXPWINDi_r2_v1.2.,2013-08-08 13:26:00,
2013-08-08 09:31:00,68.8,65.0,30.08,South,187,7.0,10.0,88,0.00,,,0.02,102,HR-IXPWINDi_r2_v1.2.,2013-08-08 13:31:00,
2013-08-08 09:37:00,68.8,65.0,30.08,SSW,192,7.0,10.0,88,0.00,,,0.02,162,HR-IXPWINDi_r2_v1.2.,2013-08-08 13:37:00,
2013-08-08 09:42:00,68.9,65.1,30.08,South,184,11.0,12.0,88,0.00,,,0.02,209,HR-IXPWINDi_r2_v1.2.,2013-08-08 13:42:00,
2013-08-08 09:47:00,69.1,65.3,30.08,WSW,247,6.0,12.0,88,0.00,,,0.02,105,HR-IXPWINDi_r2_v1.2.,2013-08-08 13:47:00,
2013-08-08 09:53:00,69.1,65.3,30.08,South,185,9.0,12.0,88,0.00,,,0.02,149,HR-IXPWINDi_r2_v1.2.,2013-08-08 13:53:00,
2013-08-08 09:58:00,69.3,65.9,30.08,South,189,9.0,12.0,89,0.00,,,0.02,181,HR-IXPWINDi_r2_v1.2.,2013-08-08 13:58:00,
2013-08-08 10:03:00,69.4,66.0,30.08,South,178,10.0,12.0,89,0.00,,,0.02,84,HR-IXPWINDi_r2_v1.2.,2013-08-08 14:03:00,
2013-08-08 10:08:00,69.5,66.1,30.08,South,186,12.0,12.0,89,0.00,,,0.02,88,HR-IXPWINDi_r2_v1.2.,2013-08-08 14:08:00,
2013-08-08 10:14:00,69.5,66.1,30.08,South,183,12.0,12.0,89,0.00,,,0.02,148,HR-IXPWINDi_r2_v1.2.,2013-08-08 14:14:00,
2013-08-08 10:19:00,69.7,66.2,30.08,South,188,10.0,12.0,89,0.00,,,0.02,63,HR-IXPWINDi_r2_v1.2.,2013-08-08 14:19:00,
2013-08-08 10:24:00,69.7,66.2,30.08,South,184,10.0,12.0,89,0.00,,,0.02,83,HR-IXPWINDi_r2_v1.2.,2013-08-08 14:24:00,
2013-08-08 10:29:00,69.8,66.3,30.08,SSW,201,8.0,15.0,89,0.00,,,0.02,104,HR-IXPWINDi_r2_v1.2.,2013-08-08 14:29:00,
2013-08-08 10:34:00,70.0,66.5,30.07,South,188,10.0,15.0,89,0.00,,,0.02,79,HR-IXPWINDi_r2_v1.2.,2013-08-08 14:34:00,
2013-08-08 10:39:00,69.9,66.4,30.07,South,183,9.0,12.0,89,0.00,,,0.02,90,HR-IXPWINDi_r2_v1.2.,2013-08-08 14:39:00,
2013-08-08 10:45:00,69.9,66.4,30.07,South,190,9.0,11.0,89,0.00,,,0.02,118,HR-IXPWINDi_r2_v1.2.,2013-08-08 14:45:00,
2013-08-08 10:50:00,70.0,66.9,30.07,South,181,10.0,11.0,90,0.00,,,0.02,51,HR-IXPWINDi_r2_v1.2.,2013-08-08 14:50:00,
2013-08-08 10:55:00,70.1,66.6,30.07,South,186,11.0,12.0,89,0.00,,,0.02,72,HR-IXPWINDi_r2_v1.2.,2013-08-08 14:55:00,
2013-08-08 11:00:00,70.1,67.0,30.07,South,177,9.0,13.0,90,0.00,,,0.02,137,HR-IXPWINDi_r2_v1.2.,2013-08-08 15:00:00,
2013-08-08 11:05:00,70.2,67.1,30.07,South,190,11.0,13.0,90,0.00,,,0.02,95,HR-IXPWINDi_r2_v1.2.,2013-08-08 15:05:00,
2013-08-08 11:11:00,70.3,67.2,30.07,South,181,9.0,13.0,90,0.00,,,0.02,130,HR-IXPWINDi_r2_v1.2.,2013-08-08 15:11:00,
2013-08-08 11:16:00,70.3,67.2,30.07,South,184,10.0,13.0,90,0.00,,,0.02,155,HR-IXPWINDi_r2_v1.2.,2013-08-08 15:16:00,
2013-08-08 11:21:00,70.4,67.3,30.06,South,183,10.0,11.0,90,0.00,,,0.02,127,HR-IXPWINDi_r2_v1.2.,2013-08-08 15:21:00,
2013-08-08 11:26:00,70.6,67.5,30.06,South,185,8.0,11.0,90,0.00,,,0.02,90,HR-IXPWINDi_r2_v1.2.,2013-08-08 15:26:00,
2013-08-08 11:31:00,70.6,67.5,30.06,South,185,9.0,11.0,90,0.00,,,0.02,107,HR-IXPWINDi_r2_v1.2.,2013-08-08 15:31:00,
2013-08-08 11:37:00,70.7,67.6,30.06,South,190,8.0,11.0,90,0.00,,,0.02,134,HR-IXPWINDi_r2_v1.2.,2013-08-08 15:37:00,
2013-08-08 11:42:00,70.7,67.6,30.06,South,186,9.0,9.0,90,0.00,,,0.02,132,HR-IXPWINDi_r2_v1.2.,2013-08-08 15:42:00,
2013-08-08 11:47:00,71.0,67.5,30.06,South,186,8.0,10.0,89,0.00,,,0.02,192,HR-IXPWINDi_r2_v1.2.,2013-08-08 15:47:00,
2013-08-08 11:52:00,71.0,67.5,30.06,South,186,9.0,11.0,89,0.00,,,0.02,97,HR-IXPWINDi_r2_v1.2.,2013-08-08 15:52:00,
2013-08-08 11:57:00,71.1,67.6,30.06,South,191,9.0,11.0,89,0.00,,,0.02,121,HR-IXPWINDi_r2_v1.2.,2013-08-08 15:57:00,
2013-08-08 12:02:00,71.3,67.8,30.05,South,185,9.0,12.0,89,0.00,,,0.00,160,HR-IXPWINDi_r2_v1.2.,2013-08-08 16:02:00,
2013-08-08 12:08:00,71.2,67.7,30.05,South,181,7.0,12.0,89,0.00,,,0.00,114,HR-IXPWINDi_r2_v1.2.,2013-08-08 16:08:00,
2013-08-08 12:13:00,70.9,67.4,30.05,South,186,10.0,10.0,89,0.00,,,0.00,156,HR-IXPWINDi_r2_v1.2.,2013-08-08 16:13:00,
2013-08-08 12:18:00,71.1,67.6,30.05,South,186,9.0,12.0,89,0.00,,,0.00,153,HR-IXPWINDi_r2_v1.2.,2013-08-08 16:18:00,
2013-08-08 12:23:00,71.3,67.8,30.05,South,180,11.0,12.0,89,0.00,,,0.00,165,HR-IXPWINDi_r2_v1.2.,2013-08-08 16:23:00,
2013-08-08 12:28:00,71.6,68.1,30.05,SSW,194,9.0,13.0,89,0.00,,,0.00,171,HR-IXPWINDi_r2_v1.2.,2013-08-08 16:28:00,
2013-08-08 12:33:00,71.8,68.0,30.05,South,180,12.0,14.0,88,0.00,,,0.00,167,HR-IXPWINDi_r2_v1.2.,2013-08-08 16:33:00,
2013-08-08 12:38:00,72.0,68.2,30.05,SSW,195,10.0,15.0,88,0.00,,,0.00,236,HR-IXPWINDi_r2_v1.2.,2013-08-08 16:38:00,
2013-08-08 12:43:00,72.2,68.4,30.05,South,188,12.0,15.0,88,0.00,,,0.00,232,HR-IXPWINDi_r2_v1.2.,2013-08-08 16:43:00,
2013-08-08 12:49:00,72.1,68.3,30.04,South,187,8.0,14.0,88,0.00,,,0.00,441,HR-IXPWINDi_r2_v1.2.,2013-08-08 16:49:00,
2013-08-08 12:54:00,71.7,67.9,30.05,South,183,10.0,12.0,88,0.00,,,0.00,283,HR-IXPWINDi_r2_v1.2.,2013-08-08 16:54:00,
2013-08-08 12:59:00,71.7,67.9,30.05,South,186,11.0,13.0,88,0.00,,,0.00,445,HR-IXPWINDi_r2_v1.2.,2013-08-08 16:59:00,
2013-08-08 13:04:00,72.7,68.9,30.05,SSW,201,11.0,15.0,88,0.00,,,0.00,510,HR-IXPWINDi_r2_v1.2.,2013-08-08 17:04:00,
2013-08-08 13:10:00,73.4,68.9,30.05,South,180,10.0,15.0,86,0.00,,,0.00,450,HR-IXPWINDi_r2_v1.2.,2013-08-08 17:10:00,
2013-08-08 13:15:00,73.8,68.9,30.04,South,179,9.0,14.0,85,0.00,,,0.00,434,HR-IXPWINDi_r2_v1.2.,2013-08-08 17:15:00,
2013-08-08 13:20:00,73.8,68.9,30.04,South,179,8.0,12.0,85,0.00,,,0.00,445,HR-IXPWINDi_r2_v1.2.,2013-08-08 17:20:00,
2013-08-08 13:25:00,73.9,68.7,30.05,SSW,193,7.0,11.0,84,0.00,,,0.00,445,HR-IXPWINDi_r2_v1.2.,2013-08-08 17:25:00,
2013-08-08 13:30:00,74.2,69.0,30.05,SSW,201,7.0,9.0,84,0.00,,,0.00,306,HR-IXPWINDi_r2_v1.2.,2013-08-08 17:30:00,
2013-08-08 13:36:00,74.3,68.7,30.05,SSW,202,8.0,10.0,83,0.00,,,0.00,257,HR-IXPWINDi_r2_v1.2.,2013-08-08 17:36:00,
2013-08-08 13:41:00,74.5,68.6,30.05,SSW,198,9.0,11.0,82,0.00,,,0.00,232,HR-IXPWINDi_r2_v1.2.,2013-08-08 17:41:00,
2013-08-08 13:46:00,74.3,68.4,30.05,SSW,197,8.0,11.0,82,0.00,,,0.00,253,HR-IXPWINDi_r2_v1.2.,2013-08-08 17:46:00,
2013-08-08 13:52:00,73.9,68.4,30.05,South,191,8.0,10.0,83,0.00,,,0.00,141,HR-IXPWINDi_r2_v1.2.,2013-08-08 17:52:00,
2013-08-08 13:57:00,73.8,68.6,30.05,SSW,192,8.0,10.0,84,0.00,,,0.00,158,HR-IXPWINDi_r2_v1.2.,2013-08-08 17:57:00,
2013-08-08 14:02:00,73.6,68.4,30.05,SSW,192,8.0,10.0,84,0.00,,,0.00,230,HR-IXPWINDi_r2_v1.2.,2013-08-08 18:02:00,
2013-08-08 14:07:00,74.0,68.8,30.05,South,188,7.0,10.0,84,0.00,,,0.00,232,HR-IXPWINDi_r2_v1.2.,2013-08-08 18:07:00,
2013-08-08 14:12:00,74.0,68.8,30.05,South,185,8.0,10.0,84,0.00,,,0.00,195,HR-IXPWINDi_r2_v1.2.,2013-08-08 18:12:00,
2013-08-08 14:17:00,74.0,68.4,30.05,South,188,8.0,9.0,83,0.00,,,0.00,93,HR-IXPWINDi_r2_v1.2.,2013-08-08 18:17:00,
2013-08-08 14:23:00,73.7,68.5,30.05,South,189,8.0,10.0,84,0.00,,,0.00,243,HR-IXPWINDi_r2_v1.2.,2013-08-08 18:23:00,
2013-08-08 14:28:00,73.5,68.3,30.04,South,175,7.0,10.0,84,0.00,,,0.00,320,HR-IXPWINDi_r2_v1.2.,2013-08-08 18:28:00,
2013-08-08 14:33:00,73.5,68.7,30.04,South,179,9.0,10.0,85,0.00,,,0.00,302,HR-IXPWINDi_r2_v1.2.,2013-08-08 18:33:00,
2013-08-08 14:38:00,73.9,68.7,30.04,SSW,192,7.0,10.0,84,0.00,,,0.00,336,HR-IXPWINDi_r2_v1.2.,2013-08-08 18:38:00,
2013-08-08 14:43:00,74.0,68.8,30.04,South,180,11.0,12.0,84,0.00,,,0.00,211,HR-IXPWINDi_r2_v1.2.,2013-08-08 18:43:00,
2013-08-08 14:49:00,74.2,68.6,30.04,South,188,9.0,12.0,83,0.00,,,0.00,225,HR-IXPWINDi_r2_v1.2.,2013-08-08 18:49:00,
2013-08-08 14:54:00,74.5,68.9,30.04,SSW,192,9.0,12.0,83,0.00,,,0.00,269,HR-IXPWINDi_r2_v1.2.,2013-08-08 18:54:00,
2013-08-08 14:59:00,74.8,68.9,30.04,South,190,12.0,12.0,82,0.00,,,0.00,320,HR-IXPWINDi_r2_v1.2.,2013-08-08 18:59:00,
2013-08-08 15:05:00,74.7,68.8,30.04,South,180,11.0,13.0,82,0.00,,,0.00,199,HR-IXPWINDi_r2_v1.2.,2013-08-08 19:05:00,
2013-08-08 15:10:00,74.8,68.9,30.03,South,184,9.0,13.0,82,0.00,,,0.00,234,HR-IXPWINDi_r2_v1.2.,2013-08-08 19:10:00,
2013-08-08 15:15:00,74.7,68.8,30.04,South,190,10.0,14.0,82,0.00,,,0.00,258,HR-IXPWINDi_r2_v1.2.,2013-08-08 19:15:00,
2013-08-08 15:20:00,74.9,69.0,30.03,South,189,12.0,15.0,82,0.00,,,0.00,315,HR-IXPWINDi_r2_v1.2.,2013-08-08 19:20:00,
2013-08-08 15:25:00,75.3,69.0,30.04,South,188,12.0,15.0,81,0.00,,,0.00,216,HR-IXPWINDi_r2_v1.2.,2013-08-08 19:25:00,
2013-08-08 15:30:00,75.2,68.9,30.03,South,184,10.0,15.0,81,0.00,,,0.00,325,HR-IXPWINDi_r2_v1.2.,2013-08-08 19:30:00,
2013-08-08 15:36:00,75.6,69.3,30.03,South,188,11.0,14.0,81,0.00,,,0.00,424,HR-IXPWINDi_r2_v1.2.,2013-08-08 19:36:00,
2013-08-08 15:41:00,76.1,69.4,30.03,South,171,9.0,15.0,80,0.00,,,0.00,670,HR-IXPWINDi_r2_v1.2.,2013-08-08 19:41:00,
2013-08-08 15:46:00,76.6,69.5,30.03,South,187,11.0,17.0,79,0.00,,,0.00,654,HR-IXPWINDi_r2_v1.2.,2013-08-08 19:46:00,
2013-08-08 15:51:00,76.8,69.4,30.03,South,188,13.0,17.0,78,0.00,,,0.00,666,HR-IXPWINDi_r2_v1.2.,2013-08-08 19:51:00,
2013-08-08 15:56:00,77.0,69.6,30.03,SSW,192,11.0,16.0,78,0.00,,,0.00,628,HR-IXPWINDi_r2_v1.2.,2013-08-08 19:56:00,
2013-08-08 16:01:00,76.9,69.5,30.02,SSW,197,14.0,16.0,78,0.00,,,0.00,534,HR-IXPWINDi_r2_v1.2.,2013-08-08 20:01:00,
2013-08-08 16:07:00,76.4,69.3,30.02,South,183,14.0,15.0,79,0.00,,,0.00,243,HR-IXPWINDi_r2_v1.2.,2013-08-08 20:07:00,
2013-08-08 16:12:00,76.9,69.5,30.02,SSW,192,11.0,16.0,78,0.00,,,0.00,605,HR-IXPWINDi_r2_v1.2.,2013-08-08 20:12:00,
2013-08-08 16:17:00,76.8,69.4,30.02,SSE,152,11.0,16.0,78,0.00,,,0.00,575,HR-IXPWINDi_r2_v1.2.,2013-08-08 20:17:00,
2013-08-08 16:22:00,76.4,69.3,30.02,SSW,200,15.0,17.0,79,0.00,,,0.00,151,HR-IXPWINDi_r2_v1.2.,2013-08-08 20:22:00,
2013-08-08 16:27:00,76.2,69.2,30.02,South,191,15.0,18.0,79,0.00,,,0.00,304,HR-IXPWINDi_r2_v1.2.,2013-08-08 20:27:00,
2013-08-08 16:33:00,76.6,69.5,30.01,South,183,16.0,19.0,79,0.00,,,0.00,232,HR-IXPWINDi_r2_v1.2.,2013-08-08 20:33:00,
2013-08-08 16:38:00,76.1,69.1,30.02,South,173,14.0,19.0,79,0.00,,,0.00,218,HR-IXPWINDi_r2_v1.2.,2013-08-08 20:38:00,
2013-08-08 16:43:00,75.9,69.2,30.01,SSW,194,13.0,17.0,80,0.00,,,0.00,297,HR-IXPWINDi_r2_v1.2.,2013-08-08 20:43:00,
2013-08-08 16:48:00,76.1,69.4,30.02,SSW,200,13.0,16.0,80,0.00,,,0.00,417,HR-IXPWINDi_r2_v1.2.,2013-08-08 20:48:00,
2013-08-08 16:53:00,76.1,69.4,30.02,South,186,14.0,16.0,80,0.00,,,0.00,186,HR-IXPWINDi_r2_v1.2.,2013-08-08 20:53:00,
2013-08-08 16:59:00,75.9,69.2,30.02,South,182,14.0,16.0,80,0.00,,,0.00,211,HR-IXPWINDi_r2_v1.2.,2013-08-08 20:59:00,
2013-08-08 17:04:00,76.4,69.3,30.01,South,191,16.0,17.0,79,0.00,,,0.00,183,HR-IXPWINDi_r2_v1.2.,2013-08-08 21:04:00,
2013-08-08 17:09:00,76.4,69.3,30.01,South,189,12.0,17.0,79,0.00,,,0.00,146,HR-IXPWINDi_r2_v1.2.,2013-08-08 21:09:00,
2013-08-08 17:14:00,75.9,68.9,30.01,South,189,14.0,17.0,79,0.00,,,0.00,142,HR-IXPWINDi_r2_v1.2.,2013-08-08 21:14:00,
2013-08-08 17:19:00,76.1,69.4,30.02,SSW,203,13.0,18.0,80,0.00,,,0.00,109,HR-IXPWINDi_r2_v1.2.,2013-08-08 21:19:00,
2013-08-08 17:24:00,75.7,69.0,30.01,SSW,192,10.0,18.0,80,0.00,,,0.00,109,HR-IXPWINDi_r2_v1.2.,2013-08-08 21:24:00,
2013-08-08 17:29:00,75.6,69.3,30.01,South,188,16.0,17.0,81,0.00,,,0.00,153,HR-IXPWINDi_r2_v1.2.,2013-08-08 21:29:00,
2013-08-08 17:35:00,75.7,69.0,30.01,South,190,14.0,18.0,80,0.00,,,0.00,144,HR-IXPWINDi_r2_v1.2.,2013-08-08 21:35:00,
2013-08-08 17:40:00,75.9,69.2,30.01,South,178,14.0,18.0,80,0.00,,,0.00,327,HR-IXPWINDi_r2_v1.2.,2013-08-08 21:40:00,
2013-08-08 17:45:00,75.9,69.2,30.01,SSW,192,14.0,17.0,80,0.00,,,0.00,225,HR-IXPWINDi_r2_v1.2.,2013-08-08 21:45:00,
2013-08-08 17:51:00,75.7,69.0,30.01,South,187,14.0,16.0,80,0.00,,,0.00,77,HR-IXPWINDi_r2_v1.2.,2013-08-08 21:51:00,
2013-08-08 17:56:00,75.6,68.9,30.00,South,191,12.0,16.0,80,0.00,,,0.00,107,HR-IXPWINDi_r2_v1.2.,2013-08-08 21:56:00,
2013-08-08 18:01:00,75.5,68.8,30.00,South,178,12.0,16.0,80,0.00,,,0.00,100,HR-IXPWINDi_r2_v1.2.,2013-08-08 22:01:00,
2013-08-08 18:06:00,75.5,68.8,30.00,SSW,192,11.0,15.0,80,0.00,,,0.00,183,HR-IXPWINDi_r2_v1.2.,2013-08-08 22:06:00,
2013-08-08 18:11:00,75.2,68.9,30.00,SSW,192,7.0,14.0,81,0.00,,,0.00,118,HR-IXPWINDi_r2_v1.2.,2013-08-08 22:11:00,
2013-08-08 18:17:00,74.8,68.5,30.00,South,189,9.0,14.0,81,0.00,,,0.00,156,HR-IXPWINDi_r2_v1.2.,2013-08-08 22:17:00,
2013-08-08 18:22:00,74.6,68.7,30.01,South,184,11.0,14.0,82,0.00,,,0.00,104,HR-IXPWINDi_r2_v1.2.,2013-08-08 22:22:00,
2013-08-08 18:27:00,74.4,68.5,30.00,SSW,194,12.0,14.0,82,0.00,,,0.00,56,HR-IXPWINDi_r2_v1.2.,2013-08-08 22:27:00,
2013-08-08 18:32:00,74.5,68.6,30.01,South,184,12.0,14.0,82,0.00,,,0.00,51,HR-IXPWINDi_r2_v1.2.,2013-08-08 22:32:00,
2013-08-08 18:38:00,74.1,68.2,30.01,South,184,11.0,14.0,82,0.00,,,0.00,51,HR-IXPWINDi_r2_v1.2.,2013-08-08 22:38:00,
2013-08-08 18:43:00,73.9,68.4,30.01,South,184,11.0,13.0,83,0.00,,,0.00,63,HR-IXPWINDi_r2_v1.2.,2013-08-08 22:43:00,
2013-08-08 18:48:00,73.8,68.6,30.01,South,183,9.0,13.0,84,0.00,,,0.00,63,HR-IXPWINDi_r2_v1.2.,2013-08-08 22:48:00,
2013-08-08 18:53:00,73.7,68.5,30.01,South,182,11.0,13.0,84,0.00,,,0.00,60,HR-IXPWINDi_r2_v1.2.,2013-08-08 22:53:00,
2013-08-08 18:58:00,73.6,68.4,30.01,SSW,193,10.0,14.0,84,0.00,,,0.00,49,HR-IXPWINDi_r2_v1.2.,2013-08-08 22:58:00,
2013-08-08 19:04:00,73.4,68.6,30.01,South,188,11.0,14.0,85,0.00,,,0.00,44,HR-IXPWINDi_r2_v1.2.,2013-08-08 23:04:00,
2013-08-08 19:09:00,73.4,68.6,30.01,South,179,12.0,14.0,85,0.00,,,0.00,37,HR-IXPWINDi_r2_v1.2.,2013-08-08 23:09:00,
2013-08-08 19:14:00,73.2,68.4,30.01,SSW,192,10.0,14.0,85,0.00,,,0.00,33,HR-IXPWINDi_r2_v1.2.,2013-08-08 23:14:00,
2013-08-08 19:19:00,72.8,68.3,30.01,South,190,11.0,13.0,86,0.00,,,0.00,30,HR-IXPWINDi_r2_v1.2.,2013-08-08 23:19:00,
2013-08-08 19:24:00,72.8,68.3,30.02,SSW,193,9.0,12.0,86,0.00,,,0.00,25,HR-IXPWINDi_r2_v1.2.,2013-08-08 23:24:00,
2013-08-08 19:29:00,73.0,68.5,30.02,South,182,12.0,13.0,86,0.00,,,0.00,18,HR-IXPWINDi_r2_v1.2.,2013-08-08 23:29:00,
2013-08-08 19:34:00,73.1,68.6,30.02,South,182,10.0,13.0,86,0.00,,,0.00,12,HR-IXPWINDi_r2_v1.2.,2013-08-08 23:34:00,
2013-08-08 19:40:00,73.0,68.5,30.02,South,190,8.0,12.0,86,0.00,,,0.00,9,HR-IXPWINDi_r2_v1.2.,2013-08-08 23:40:00,
2013-08-08 19:45:00,73.0,68.5,30.02,South,187,9.0,12.0,86,0.00,,,0.00,5,HR-IXPWINDi_r2_v1.2.,2013-08-08 23:45:00,
2013-08-08 19:50:00,72.8,68.3,30.02,South,184,8.0,11.0,86,0.00,,,0.00,0,HR-IXPWINDi_r2_v1.2.,2013-08-08 23:50:00,
2013-08-08 19:55:00,73.0,68.5,30.02,SSW,199,11.0,14.0,86,0.00,,,0.00,0,HR-IXPWINDi_r2_v1.2.,2013-08-08 23:55:00,
2013-08-08 20:00:00,73.1,68.6,30.03,SSW,192,12.0,16.0,86,0.00,,,0.00,0,HR-IXPWINDi_r2_v1.2.,2013-08-09 00:00:00,
2013-08-08 20:06:00,73.1,68.6,30.02,South,179,18.0,20.0,86,0.00,,,0.00,0,HR-IXPWINDi_r2_v1.2.,2013-08-09 00:06:00,
2013-08-08 20:11:00,73.2,68.7,30.03,SSW,194,13.0,20.0,86,0.00,,,0.00,0,HR-IXPWINDi_r2_v1.2.,2013-08-09 00:11:00,
2013-08-08 20:16:00,73.0,68.5,30.03,South,178,12.0,18.0,86,0.00,,,0.00,0,HR-IXPWINDi_r2_v1.2.,2013-08-09 00:16:00,
2013-08-08 20:21:00,72.8,68.3,30.03,SSW,192,10.0,15.0,86,0.00,,,0.00,0,HR-IXPWINDi_r2_v1.2.,2013-08-09 00:21:00,
2013-08-08 20:26:00,72.6,68.4,30.03,South,182,10.0,14.0,87,0.00,,,0.00,0,HR-IXPWINDi_r2_v1.2.,2013-08-09 00:26:00,
2013-08-08 20:32:00,72.4,68.2,30.04,SSW,193,9.0,12.0,87,0.00,,,0.00,0,HR-IXPWINDi_r2_v1.2.,2013-08-09 00:32:00,
2013-08-08 20:37:00,72.2,68.1,30.04,South,184,13.0,13.0,87,0.00,,,0.00,0,HR-IXPWINDi_r2_v1.2.,2013-08-09 00:37:00,
2013-08-08 20:42:00,72.0,68.2,30.04,South,186,10.0,13.0,88,0.00,,,0.00,0,HR-IXPWINDi_r2_v1.2.,2013-08-09 00:42:00,
2013-08-08 20:47:00,71.8,68.0,30.04,South,187,10.0,13.0,88,0.00,,,0.00,0,HR-IXPWINDi_r2_v1.2.,2013-08-09 00:47:00,
2013-08-08 20:52:00,71.6,67.8,30.04,SSW,192,8.0,12.0,88,0.00,,,0.00,0,HR-IXPWINDi_r2_v1.2.,2013-08-09 00:52:00,
2013-08-08 20:58:00,71.3,67.8,30.04,South,190,10.0,11.0,89,0.00,,,0.00,0,HR-IXPWINDi_r2_v1.2.,2013-08-09 00:58:00,
2013-08-08 21:03:00,71.3,67.8,30.04,South,191,9.0,10.0,89,0.00,,,0.00,0,HR-IXPWINDi_r2_v1.2.,2013-08-09 01:03:00,
2013-08-08 21:08:00,71.3,67.8,30.04,South,182,11.0,11.0,89,0.00,,,0.00,0,HR-IXPWINDi_r2_v1.2.,2013-08-09 01:08:00,
2013-08-08 21:13:00,71.2,67.7,30.05,South,178,9.0,11.0,89,0.00,,,0.00,0,HR-IXPWINDi_r2_v1.2.,2013-08-09 01:13:00,
2013-08-08 21:19:00,71.2,67.7,30.05,South,185,10.0,12.0,89,0.00,,,0.00,0,HR-IXPWINDi_r2_v1.2.,2013-08-09 01:19:00,
2013-08-08 21:24:00,71.1,68.0,30.05,South,186,10.0,12.0,90,0.00,,,0.00,0,HR-IXPWINDi_r2_v1.2.,2013-08-09 01:24:00,
2013-08-08 21:29:00,71.0,67.5,30.05,South,184,10.0,11.0,89,0.00,,,0.00,0,HR-IXPWINDi_r2_v1.2.,2013-08-09 01:29:00,
2013-08-08 21:34:00,70.8,67.7,30.05,South,182,7.0,10.0,90,0.00,,,0.00,0,HR-IXPWINDi_r2_v1.2.,2013-08-09 01:34:00,
2013-08-08 21:40:00,70.7,67.6,30.04,South,182,9.0,10.0,90,0.00,,,0.00,0,HR-IXPWINDi_r2_v1.2.,2013-08-09 01:40:00,
2013-08-08 21:45:00,70.7,67.6,30.04,SSW,198,8.0,10.0,90,0.00,,,0.00,0,HR-IXPWINDi_r2_v1.2.,2013-08-09 01:45:00,
2013-08-08 21:50:00,70.7,67.9,30.04,South,190,8.0,11.0,91,0.00,,,0.00,0,HR-IXPWINDi_r2_v1.2.,2013-08-09 01:50:00,
2013-08-08 21:55:00,70.7,67.9,30.04,South,182,8.0,11.0,91,0.00,,,0.00,0,HR-IXPWINDi_r2_v1.2.,2013-08-09 01:55:00,
2013-08-08 22:00:00,70.6,67.8,30.04,SSW,195,8.0,11.0,91,0.00,,,0.00,0,HR-IXPWINDi_r2_v1.2.,2013-08-09 02:00:00,
2013-08-08 22:06:00,70.7,67.9,30.04,SSW,201,10.0,13.0,91,0.00,,,0.00,0,HR-IXPWINDi_r2_v1.2.,2013-08-09 02:06:00,
2013-08-08 22:11:00,70.8,68.0,30.04,SSW,200,12.0,13.0,91,0.00,,,0.00,0,HR-IXPWINDi_r2_v1.2.,2013-08-09 02:11:00,
2013-08-08 22:16:00,70.7,67.9,30.04,SSW,210,8.0,13.0,91,0.00,,,0.00,0,HR-IXPWINDi_r2_v1.2.,2013-08-09 02:16:00,
2013-08-08 22:21:00,70.5,67.7,30.04,SSW,201,7.0,12.0,91,0.00,,,0.00,0,HR-IXPWINDi_r2_v1.2.,2013-08-09 02:21:00,
2013-08-08 22:26:00,70.4,67.6,30.04,SSW,209,7.0,10.0,91,0.00,,,0.00,0,HR-IXPWINDi_r2_v1.2.,2013-08-09 02:26:00,
2013-08-08 22:32:00,70.4,67.6,30.04,SSW,197,8.0,9.0,91,0.00,,,0.00,0,HR-IXPWINDi_r2_v1.2.,2013-08-09 02:32:00,
2013-08-08 22:37:00,70.4,67.9,30.04,South,189,10.0,10.0,92,0.00,,,0.00,0,HR-IXPWINDi_r2_v1.2.,2013-08-09 02:37:00,
2013-08-08 22:42:00,70.5,68.0,30.04,SSW,193,8.0,10.0,92,0.00,,,0.00,0,HR-IXPWINDi_r2_v1.2.,2013-08-09 02:42:00,
2013-08-08 22:47:00,70.5,68.0,30.04,SSW,196,7.0,10.0,92,0.00,,,0.00,0,HR-IXPWINDi_r2_v1.2.,2013-08-09 02:47:00,
2013-08-08 22:53:00,70.4,67.9,30.04,South,187,6.0,9.0,92,0.00,,,0.00,0,HR-IXPWINDi_r2_v1.2.,2013-08-09 02:53:00,
2013-08-08 22:58:00,70.4,67.9,30.04,SSW,194,7.0,8.0,92,0.00,,,0.00,0,HR-IXPWINDi_r2_v1.2.,2013-08-09 02:58:00,
2013-08-08 23:03:00,70.4,67.9,30.03,SSW,194,6.0,8.0,92,0.00,,,0.00,0,HR-IXPWINDi_r2_v1.2.,2013-08-09 03:03:00,
2013-08-08 23:08:00,70.3,67.8,30.03,SSW,194,7.0,8.0,92,0.00,,,0.00,0,HR-IXPWINDi_r2_v1.2.,2013-08-09 03:08:00,
2013-08-08 23:13:00,70.1,67.6,30.03,SSW,194,8.0,8.0,92,0.00,,,0.00,0,HR-IXPWINDi_r2_v1.2.,2013-08-09 03:13:00,
2013-08-08 23:19:00,69.9,67.4,30.03,South,190,7.0,9.0,92,0.00,,,0.00,0,HR-IXPWINDi_r2_v1.2.,2013-08-09 03:19:00,
2013-08-08 23:24:00,69.9,67.4,30.03,South,188,8.0,9.0,92,0.00,,,0.00,0,HR-IXPWINDi_r2_v1.2.,2013-08-09 03:24:00,
2013-08-08 23:29:00,70.0,67.8,30.03,South,188,9.0,10.0,93,0.00,,,0.00,0,HR-IXPWINDi_r2_v1.2.,2013-08-09 03:29:00,
2013-08-08 23:34:00,70.1,67.9,30.03,South,189,10.0,11.0,93,0.00,,,0.00,0,HR-IXPWINDi_r2_v1.2.,2013-08-09 03:34:00,
2013-08-08 23:40:00,70.3,68.1,30.03,South,187,10.0,12.0,93,0.00,,,0.00,0,HR-IXPWINDi_r2_v1.2.,2013-08-09 03:40:00,
2013-08-08 23:45:00,70.2,68.0,30.03,South,171,10.0,12.0,93,0.00,,,0.00,0,HR-IXPWINDi_r2_v1.2.,2013-08-09 03:45:00,
2013-08-08 23:50:00,70.3,68.1,30.02,SSW,194,8.0,15.0,93,0.00,,,0.00,0,HR-IXPWINDi_r2_v1.2.,2013-08-09 03:50:00,
2013-08-08 23:55:00,70.4,68.2,30.03,SSW,197,9.0,15.0,93,0.00,,,0.00,0,HR-IXPWINDi_r2_v1.2.,2013-08-09 03:55:00,